Arlington, TX

7:40 PM CDT on May 28, 2017 (GMT -0500)
Arlington Municipal

Weather History for KGKY - June, 2013

Change the Weather History Date:

Thursday, June 13, 2013

  Actual Average (KRBD) Record (KRBD)
Temperature  
Mean Temperature 84 °F -  
Max Temperature 96 °F 87 °F 100 °F (2011)
Min Temperature 73 °F 68 °F 64 °F (2003)
Cooling Degree Days 19    
Growing Degree Days 34 (Base 50)    
Moisture  
Dew Point 68 °F    
Average Humidity 60    
Maximum Humidity 84    
Minimum Humidity 38    
Precipitation  
Precipitation 0.00 in - - ()
Sea Level Pressure  
Sea Level Pressure 29.96 in    
Wind  
Wind Speed 7 mph (South)    
Max Wind Speed 9 mph    
Max Gust Speed -    
Visibility 10 miles    
Events      
Averages and records for this station are not official NWS values.
T = Trace of Precipitation, MM = Missing Value Source: NWS Daily Summary

Daily Weather History Graph

Daily Weather History Graph

Search for Another Location

Airport or City:

Trip Planner

Search our weather history database for the weather conditions in past years. The results will help you decide how hot, cold, wet, or windy it might be!

Date:

Astronomy

Jun. 13, 2013 Rise Set
Actual Time 6:20 AM CDT 8:37 PM CDT
Civil Twilight 5:51 AM CDT 9:05 PM CDT
Nautical Twilight 5:16 AM CDT 9:40 PM CDT
Astronomical Twilight 4:38 AM CDT 10:18 PM CDT
Moon 10:45 AM CDT (6/13) 11:58 PM CDT (6/13)
Length of Visible Light 15h 14m
Length of Day
14h 16m
Waxing Crescent, 22% of the Moon is Illuminated
Jun 13
Waxing Crescent
Jun 16
First Quarter
Jun 23
Full
Jun 29
Last Quarter
Jul 8
New

Hourly Weather History & Observations

Time (CDT) Temp. Heat Index Dew Point Humidity Pressure Visibility Wind Dir Wind Speed Gust Speed Precip Events Conditions
12:53 AM 81.0 °F 84.1 °F 69.1 °F 67% 29.96 in 10.0 mi South 9.2 mph - N/A   Clear
1:53 AM 80.1 °F 82.7 °F 68.0 °F 67% 29.96 in 10.0 mi South 8.1 mph - N/A   Clear
2:53 AM 78.1 °F - 66.9 °F 68% 29.96 in 10.0 mi South 6.9 mph - N/A   Clear
3:53 AM 75.9 °F - 66.9 °F 74% 29.97 in 10.0 mi South 5.8 mph - N/A   Clear
4:53 AM 73.9 °F - 68.0 °F 82% 29.98 in 10.0 mi SSE 4.6 mph - N/A   Clear
5:53 AM 73.0 °F - 68.0 °F 84% 29.99 in 10.0 mi SSE 4.6 mph - N/A   Clear
6:53 AM 73.0 °F - 68.0 °F 84% 30.01 in 10.0 mi Calm Calm - N/A   Clear
7:53 AM 75.9 °F - 70.0 °F 82% 30.02 in 10.0 mi South 4.6 mph - N/A   Clear
8:53 AM 80.1 °F 83.2 °F 70.0 °F 71% 30.04 in 10.0 mi SSW 8.1 mph - N/A   Clear
9:53 AM 84.0 °F 88.4 °F 70.0 °F 63% 30.04 in 10.0 mi South 9.2 mph - N/A   Partly Cloudy
10:53 AM 87.1 °F 90.6 °F 68.0 °F 53% 30.03 in 10.0 mi SW 8.1 mph - N/A   Clear
11:53 AM 90.0 °F 93.6 °F 68.0 °F 48% 30.02 in 10.0 mi SSW 8.1 mph - N/A   Clear
12:53 PM 91.0 °F 93.8 °F 66.0 °F 44% 30.01 in 10.0 mi Variable 5.8 mph - N/A   Clear
1:53 PM 93.0 °F 95.9 °F 66.0 °F 41% 29.98 in 10.0 mi South 6.9 mph - N/A   Clear
2:53 PM 93.9 °F 97.5 °F 66.9 °F 41% 29.95 in 10.0 mi SE 6.9 mph - N/A   Clear
3:53 PM 95.0 °F 99.5 °F 68.0 °F 41% 29.92 in 10.0 mi SSE 9.2 mph - N/A   Clear
4:53 PM 95.0 °F 97.9 °F 66.0 °F 38% 29.90 in 10.0 mi SSE 5.8 mph - N/A   Clear
5:53 PM 95.0 °F 99.0 °F 66.9 °F 40% 29.89 in 10.0 mi South 4.6 mph - N/A   Clear
6:53 PM 93.9 °F 97.5 °F 66.9 °F 41% 29.88 in 10.0 mi SSE 9.2 mph - N/A   Clear
7:53 PM 91.9 °F 95.4 °F 66.9 °F 44% 29.88 in 10.0 mi SE 9.2 mph - N/A   Clear
8:53 PM 87.1 °F 90.6 °F 68.0 °F 53% 29.88 in 10.0 mi SSE 6.9 mph - N/A   Clear
9:53 PM 84.0 °F 87.0 °F 68.0 °F 58% 29.90 in 10.0 mi SE 4.6 mph - N/A   Clear
10:53 PM 80.1 °F 83.2 °F 70.0 °F 71% 29.92 in 10.0 mi South 3.5 mph - N/A   Clear
11:53 PM 77.0 °F - 69.1 °F 76% 29.92 in 10.0 mi Calm Calm - N/A   Clear